Hourly Weather New Delhi

Today, 6 May, Thursday

Time Temperature Precipitation Wind Pressure Humidity
00:00 +36°C° 0 mm 4 mps 733 mmHg 26%
01:00 +35°C° 0 mm 4 mps 733 mmHg 28%
02:00 +35°C° 0 mm 3 mps 733 mmHg 30%
03:00 +34°C° 0 mm 3 mps 733 mmHg 31%
04:00 +34°C° 0 mm 4 mps 733 mmHg 32%
05:00 +33°C° 0 mm 4 mps 734 mmHg 33%
06:00 +34°C° 0 mm 4 mps 734 mmHg 31%
07:00 +35°C° 0 mm 4 mps 735 mmHg 30%
08:00 +36°C° 0 mm 4 mps 736 mmHg 29%
09:00 +37°C° 0 mm 4 mps 736 mmHg 26%
10:00 +39°C° 0 mm 3 mps 736 mmHg 23%
11:00 +42°C° 0 mm 3 mps 736 mmHg 20%
12:00 +43°C° 0 mm 3 mps 735 mmHg 19%
13:00 +43°C° 0 mm 3 mps 734 mmHg 18%
14:00 +44°C° 0 mm 3 mps 733 mmHg 16%
15:00 +40°C° 1.3 mm 4 mps 733 mmHg 24%
16:00 +36°C° 1.3 mm 5 mps 733 mmHg 32%
17:00 +32°C° 1.3 mm 6 mps 734 mmHg 40%
18:00 +32°C° 0 mm 5 mps 734 mmHg 41%
19:00 +32°C° 0 mm 5 mps 734 mmHg 42%
20:00 +30°C° 0 mm 5 mps 734 mmHg 43%
21:00 +30°C° 0 mm 4 mps 735 mmHg 41%
22:00 +30°C° 0 mm 4 mps 735 mmHg 40%
23:00 +31°C° 0 mm 3 mps 736 mmHg 38%

Tomorrow, 7 May, Friday

Time Temperature Precipitation Wind Pressure Humidity
00:00 +30°C° 0 mm 3 mps 735 mmHg 39%
01:00 +30°C° 0 mm 3 mps 735 mmHg 41%
02:00 +30°C° 0 mm 3 mps 735 mmHg 42%
03:00 +30°C° 0 mm 3 mps 736 mmHg 45%
04:00 +29°C° 0 mm 3 mps 736 mmHg 48%
05:00 +29°C° 0 mm 4 mps 736 mmHg 52%
06:00 +30°C° 0 mm 4 mps 737 mmHg 48%
07:00 +32°C° 0 mm 5 mps 738 mmHg 44%
08:00 +33°C° 0 mm 5 mps 738 mmHg 41%
09:00 +35°C° 0 mm 5 mps 738 mmHg 37%
10:00 +37°C° 0 mm 5 mps 738 mmHg 32%
11:00 +38°C° 0 mm 4 mps 738 mmHg 28%
12:00 +40°C° 0 mm 4 mps 737 mmHg 27%
13:00 +39°C° 0 mm 3 mps 737 mmHg 26%
14:00 +39°C° 0 mm 2 mps 736 mmHg 25%
15:00 +39°C° 0 mm 2 mps 736 mmHg 23%
16:00 +40°C° 0 mm 1 mps 735 mmHg 21%
17:00 +40°C° 0 mm 1 mps 734 mmHg 20%
18:00 +37°C° 0.2 mm 2 mps 735 mmHg 27%
19:00 +34°C° 0.2 mm 4 mps 736 mmHg 35%
20:00 +30°C° 0.2 mm 5 mps 737 mmHg 43%
21:00 +30°C° 0 mm 4 mps 736 mmHg 45%
22:00 +30°C° 0 mm 3 mps 736 mmHg 48%
23:00 +30°C° 0 mm 2 mps 736 mmHg 50%

Day after tomorrow, 8 May, Saturday

Time Temperature Precipitation Wind Pressure Humidity
00:00 +29°C° 0 mm 2 mps 736 mmHg 51%
01:00 +29°C° 0 mm 2 mps 736 mmHg 52%
02:00 +28°C° 0 mm 1 mps 735 mmHg 53%
03:00 +28°C° 0 mm 1 mps 736 mmHg 52%
04:00 +28°C° 0 mm 1 mps 736 mmHg 52%
05:00 +28°C° 0 mm 1 mps 736 mmHg 51%
06:00 +30°C° 0 mm 1 mps 736 mmHg 47%
07:00 +31°C° 0 mm 1 mps 737 mmHg 42%
08:00 +33°C° 0 mm 1 mps 737 mmHg 38%
09:00 +35°C° 0 mm 1 mps 737 mmHg 33%
10:00 +37°C° 0 mm 1 mps 737 mmHg 28%
11:00 +39°C° 0 mm 1 mps 737 mmHg 24%
12:00 +40°C° 0 mm 1 mps 736 mmHg 21%
13:00 +41°C° 0 mm 2 mps 735 mmHg 18%
14:00 +42°C° 0 mm 2 mps 734 mmHg 16%
15:00 +43°C° 0 mm 3 mps 734 mmHg 15%
16:00 +43°C° 0 mm 3 mps 733 mmHg 14%
17:00 +43°C° 0 mm 3 mps 732 mmHg 13%
18:00 +42°C° 0 mm 3 mps 733 mmHg 14%
19:00 +42°C° 0 mm 3 mps 733 mmHg 16%
20:00 +40°C° 0 mm 3 mps 733 mmHg 17%
21:00 +39°C° 0 mm 3 mps 733 mmHg 18%
22:00 +38°C° 0 mm 3 mps 734 mmHg 20%
23:00 +37°C° 0 mm 3 mps 734 mmHg 21%

9 May, Sunday

Time Temperature Precipitation Wind Pressure Humidity
00:00 +36°C° 0 mm 3 mps 734 mmHg 23%
01:00 +36°C° 0 mm 2 mps 733 mmHg 25%
02:00 +35°C° 0 mm 2 mps 733 mmHg 27%
03:00 +34°C° 0 mm 1 mps 733 mmHg 28%
04:00 +33°C° 0 mm 1 mps 734 mmHg 29%
05:00 +33°C° 0 mm 1 mps 734 mmHg 30%

10 May, Monday

Time Temperature Precipitation Wind Pressure Humidity

11 May, Tuesday

Time Temperature Precipitation Wind Pressure Humidity
Show more